Powrót do katalogu

SL-3 DEB

AktywnyPO
NORAD 19643·DEBRIS·🇷🇺 Russia

Wystrzelony Dec 23, 1978 z Plesetsk Cosmodrome

Loading…

Następne Przeloty (najbliższe 24 godziny)

TLE

ŚwieżeSource: Space-Track

Epoka: Sep 14, 2026, 06:40 UTC

1 19643U 78121C   26257.27827811  .00000026  00000-0  71560-5 0  9992
2 19643  81.2361  90.0419 0063604 301.1471 182.1472 14.15996200956131

Śledź SL-3 DEB w czasie rzeczywistym z AllMySat

Download on the App Store